Location: Demmingen
(48.6757°N, 10.4375°E)
Time: 05:10:53
(UTC+00:00)

CZ-2C R/B - Pass Details

Date: 11 August 2024
Orbit: 782 x 869 km, 98.3° (Epoch: 08 September)

Event Time Altitude Azimuth Distance (km) Brightness Sun altitude
Exits shadow 02:11:45 24° 237° (WSW) 1,689 3.7 -16.1°
Maximum altitude 02:13:25 28° 267° (W) 1,537 3.7 -15.9°
Drops below altitude 10° 02:18:06 10° 325° (NW) 2,461 5.3 -15.4°
Sets 02:20:47 0° 337° (NNW) 3,385 6.2 -15.1°
